CZ-2D DEB, 44607

Orbit data source: Space-Track

CZ-2D DEB, 44607 is space debris in SSO originally from a launch on Fri, 11 Nov 2016 UTC launched from the Jiuquan Satellite Launch Center, China (JSC). Debris objects in space refer to the collection of defunct objects orbiting the Earth. Examples of debris include non-operational satellites, rocket bodies, and fragments generated from explosions, collisions, or faulty payload assembly.

Loading next visibility...
Identifier
44607, 2016-068G
Orbit
SSO
Country
Flag of CNCN / PRC
Related business
Manufacturer
Unknown
Mission
Spacecraft
Bus & Motor
Unknown
Mass
Unknown
Launch date (UTC)
2016-11-11 (9 years ago)
Launch vehicle
Unknown
Launch site
Jiuquan Satellite Launch Center, China (JSC)
Object type
Payload
Rocket body
Debris
Shape & HBR
Unknown shape, 0.1 m
Radar Cross Section
Small (<0.1 m²)

Expand to show TLE details & history
Last TLE update: 1 day ago

TLE from 1 day ago
0 CZ-2D DEB
1 44607U 16068G   25307.19173806  .00000873  00000-0  55082-3 0  9995
2 44607  98.4901  92.6131 0205186  81.0904 281.3427 13.96560927449282
Epoch: 2025-11-03T04:36Z
TLE epoch observation values (Epoch: 2025-11-03T04:36:06.168Z)
Latitude
-0.00004°
Longitude
-19.10924°
Altitude
882.185 km
Speed
7.425 km/s
True Right ascension
06h 10m 27s
True Declination
0° 00' 00"
Sunlit
Object was in full shadow at epoch
Visualization orbit readout
Latitude
Unknown
Longitude
Unknown
Altitude
Unknown
Speed
Unknown
Apparent Right ascension
Unknown
Apparent Declination
Unknown
Sunlit
N/A
Visualization observer readout
Local Sidereal Time
06:56:22
Azimuth
Unknown
Elevation
Unknown
Doppler factor
Unknown
Orbital elements
Apogee altitude
1,052.303 km
Perigee altitude
753.51 km
Semi-major axis
7,281.043 km
Eccentricity
0.02052
Inclination
98.4901°
RAAN
92.6131°
Arg. of periapsis
81.0904°
True anomaly
279.02631°
Mean anomaly
281.3427°
Eccentric anomaly
280.1856°
Mean motion
3.49344 °/min
Orbital period
103.05 mins
BSTAR
0.00055082
Loading maneuver chart data...
Computing Atmospheric mass density...
Loading historical data...
Loading historical data...
Loading historical data...
Loading historical data...
Loading historical data...
Loading historical data...
Loading historical data...

Documentation

Showing up to 5 results
|